THY1TCA RJGG-RJOA

Flight info

Callsign THY1TCA
Flight time 0h 56m
Altitude 28000
Route HIKNE Y207 ARASI Y20 KAMMY Y202 AMURO
Aircraft B738/M-SDE2E3FGHIRWXY/LB1

Departure

Time 2026-05-06 21:54
Airport Chubu Centrair International Airport (RJGG)

Arrival

Time 2026-05-06 22:50
Airport Hiroshima Airport (RJOA)
Time Latitude Longitude Altitude Speed Heading
2026-05-06 21:16 34.85901 136.81060 23 ft 0 kts 170°
2026-05-06 21:35 34.85910 136.81058 27 ft 2 kts 168°
2026-05-06 21:35 34.85927 136.81054 28 ft 2 kts 171°
2026-05-06 21:35 34.85943 136.81052 26 ft 2 kts 172°
2026-05-06 21:36 34.85959 136.81049 27 ft 2 kts 174°
2026-05-06 21:36 34.85976 136.81047 27 ft 2 kts 178°
2026-05-06 21:36 34.85992 136.81048 24 ft 2 kts 189°
2026-05-06 21:36 34.86006 136.81056 24 ft 2 kts 250°
2026-05-06 21:37 34.86008 136.81062 25 ft 0 kts 258°
2026-05-06 21:41 34.86007 136.81053 23 ft 4 kts 261°
2026-05-06 21:41 34.86001 136.80995 23 ft 10 kts 264°
2026-05-06 21:41 34.85979 136.80901 24 ft 11 kts 243°
2026-05-06 21:41 34.85912 136.80877 24 ft 11 kts 168°
2026-05-06 21:42 34.85841 136.80892 25 ft 10 kts 169°
2026-05-06 21:42 34.85770 136.80909 24 ft 10 kts 168°
2026-05-06 21:42 34.85703 136.80925 25 ft 10 kts 168°
2026-05-06 21:42 34.85638 136.80941 24 ft 10 kts 168°
2026-05-06 21:43 34.85573 136.80957 23 ft 9 kts 168°
2026-05-06 21:43 34.85511 136.80972 24 ft 9 kts 168°
2026-05-06 21:43 34.85450 136.80987 24 ft 9 kts 168°
2026-05-06 21:43 34.85391 136.81001 25 ft 9 kts 168°
2026-05-06 21:44 34.85333 136.81015 26 ft 8 kts 168°
2026-05-06 21:44 34.85261 136.81033 25 ft 29 kts 168°
2026-05-06 21:44 34.84858 136.81131 25 ft 63 kts 168°
2026-05-06 21:44 34.84582 136.81197 25 ft 32 kts 169°
2026-05-06 21:45 34.84456 136.81228 25 ft 17 kts 168°
2026-05-06 21:45 34.84370 136.81224 23 ft 8 kts 220°
2026-05-06 21:45 34.84350 136.81165 24 ft 8 kts 255°
2026-05-06 21:45 34.84338 136.81104 24 ft 7 kts 257°
2026-05-06 21:46 34.84328 136.81046 22 ft 0 kts 259°
2026-05-06 21:52 34.84320 136.80988 22 ft 12 kts 261°
2026-05-06 21:53 34.84331 136.80910 22 ft 8 kts 312°
2026-05-06 21:53 34.84381 136.80884 23 ft 8 kts 347°
2026-05-06 21:53 34.84454 136.80866 22 ft 17 kts 349°
2026-05-06 21:53 34.84830 136.80778 28 ft 97 kts 348°
2026-05-06 21:54 34.85743 136.80557 99 ft 163 kts 348°
2026-05-06 21:54 34.86872 136.80314 1058 ft 161 kts 349°
2026-05-06 21:54 34.87980 136.79948 1994 ft 172 kts 342°
2026-05-06 21:54 34.89226 136.79432 2361 ft 206 kts 341°
2026-05-06 21:55 34.90670 136.78827 2623 ft 230 kts 341°
2026-05-06 21:55 34.92231 136.78181 3067 ft 248 kts 340°
2026-05-06 21:55 34.93917 136.77490 3641 ft 261 kts 340°
2026-05-06 21:55 34.95650 136.76783 4555 ft 263 kts 339°
2026-05-06 21:56 34.97392 136.76054 5435 ft 266 kts 334°
2026-05-06 21:56 34.98869 136.74722 6273 ft 266 kts 307°
2026-05-06 21:56 34.99868 136.72822 7089 ft 268 kts 297°
2026-05-06 21:56 35.00746 136.70828 7883 ft 273 kts 295°
2026-05-06 21:57 35.01631 136.68761 8704 ft 277 kts 295°
2026-05-06 21:57 35.02530 136.66659 9525 ft 281 kts 295°
2026-05-06 21:57 35.03448 136.64525 10280 ft 287 kts 295°
2026-05-06 21:57 35.04415 136.62282 10549 ft 311 kts 295°
2026-05-06 21:58 35.05466 136.59853 10761 ft 334 kts 295°
2026-05-06 21:58 35.06572 136.57309 11294 ft 343 kts 295°
2026-05-06 21:58 35.07702 136.54723 12025 ft 346 kts 295°
2026-05-06 21:58 35.08837 136.52127 12762 ft 348 kts 295°
2026-05-06 21:59 35.09985 136.49500 13491 ft 351 kts 295°
2026-05-06 21:59 35.11139 136.46857 14174 ft 354 kts 295°
2026-05-06 21:59 35.12299 136.44197 14773 ft 358 kts 295°
2026-05-06 21:59 35.13477 136.41493 15363 ft 362 kts 295°
2026-05-06 22:00 35.14668 136.38754 15927 ft 367 kts 296°
2026-05-06 22:00 35.15869 136.35993 16537 ft 370 kts 296°
2026-05-06 22:00 35.17079 136.33210 17125 ft 373 kts 296°
2026-05-06 22:00 35.18305 136.30386 17697 ft 377 kts 296°
2026-05-06 22:01 35.19542 136.27537 18248 ft 381 kts 296°
2026-05-06 22:01 35.20786 136.24666 18738 ft 384 kts 296°
2026-05-06 22:01 35.22039 136.21769 19242 ft 386 kts 295°
2026-05-06 22:01 35.22959 136.18740 19720 ft 386 kts 281°
2026-05-06 22:02 35.23311 136.15483 20222 ft 387 kts 270°
2026-05-06 22:02 35.23089 136.12198 20704 ft 388 kts 259°
2026-05-06 22:02 35.22568 136.08918 20999 ft 396 kts 258°
2026-05-06 22:02 35.22034 136.05625 21580 ft 395 kts 259°
2026-05-06 22:03 35.21519 136.02333 22136 ft 395 kts 259°
2026-05-06 22:03 35.21024 135.99012 22624 ft 398 kts 259°
2026-05-06 22:03 35.20536 135.95677 23066 ft 400 kts 259°
2026-05-06 22:03 35.20047 135.92322 23576 ft 400 kts 259°
2026-05-06 22:04 35.19557 135.88981 24129 ft 398 kts 259°
2026-05-06 22:04 35.19069 135.85662 24672 ft 396 kts 259°
2026-05-06 22:04 35.18580 135.82364 25267 ft 392 kts 259°
2026-05-06 22:04 35.18092 135.79091 25770 ft 391 kts 259°
2026-05-06 22:05 35.17563 135.75821 26261 ft 391 kts 258°
2026-05-06 22:05 35.17012 135.72571 26792 ft 389 kts 258°
2026-05-06 22:05 35.16457 135.69348 27388 ft 386 kts 258°
2026-05-06 22:05 35.15906 135.66141 27921 ft 385 kts 258°
2026-05-06 22:06 35.15358 135.62936 28048 ft 386 kts 258°
2026-05-06 22:06 35.14811 135.59733 28077 ft 384 kts 258°
2026-05-06 22:06 35.13723 135.53342 28086 ft 385 kts 258°
2026-05-06 22:07 35.12633 135.46947 28088 ft 385 kts 258°
2026-05-06 22:07 35.11724 135.41628 28083 ft 385 kts 258°
2026-05-06 22:08 35.10626 135.35227 28083 ft 384 kts 258°
2026-05-06 22:08 35.09529 135.28850 28063 ft 383 kts 258°
2026-05-06 22:09 35.08439 135.22494 28081 ft 382 kts 258°
2026-05-06 22:09 35.07358 135.16164 28071 ft 380 kts 258°
2026-05-06 22:10 35.06283 135.09895 28079 ft 378 kts 258°
2026-05-06 22:10 35.05203 135.03617 28081 ft 376 kts 257°
2026-05-06 22:11 35.04126 134.97373 28075 ft 377 kts 257°
2026-05-06 22:11 35.03039 134.91107 28066 ft 378 kts 257°
2026-05-06 22:12 35.01931 134.84838 28087 ft 377 kts 257°
2026-05-06 22:12 35.00820 134.78582 28068 ft 378 kts 257°
2026-05-06 22:13 34.99706 134.72307 28077 ft 377 kts 257°
2026-05-06 22:13 34.98546 134.66079 28076 ft 376 kts 255°
2026-05-06 22:14 34.97185 134.59889 28088 ft 385 kts 255°
2026-05-06 22:14 34.95757 134.53438 28081 ft 403 kts 255°
2026-05-06 22:15 34.94292 134.46714 28100 ft 417 kts 255°
2026-05-06 22:15 34.92782 134.39783 28087 ft 429 kts 255°
2026-05-06 22:16 34.92009 134.36224 27852 ft 440 kts 255°
2026-05-06 22:16 34.91224 134.32585 27485 ft 448 kts 255°
2026-05-06 22:16 34.90426 134.28886 26987 ft 451 kts 255°
2026-05-06 22:16 34.89629 134.25191 26510 ft 451 kts 255°
2026-05-06 22:17 34.88827 134.21487 26026 ft 453 kts 255°
2026-05-06 22:17 34.88021 134.17780 25522 ft 454 kts 255°
2026-05-06 22:17 34.87213 134.14106 24895 ft 452 kts 255°
2026-05-06 22:17 34.86401 134.10446 24385 ft 444 kts 255°
2026-05-06 22:18 34.85598 134.06839 23892 ft 440 kts 255°
2026-05-06 22:18 34.84795 134.03237 23364 ft 440 kts 255°
2026-05-06 22:18 34.83997 133.99659 22844 ft 437 kts 255°
2026-05-06 22:18 34.83204 133.96106 22350 ft 434 kts 255°
2026-05-06 22:19 34.82415 133.92573 21875 ft 432 kts 255°
2026-05-06 22:19 34.81627 133.89043 21403 ft 430 kts 255°
2026-05-06 22:19 34.80842 133.85537 20944 ft 428 kts 255°
2026-05-06 22:19 34.80061 133.82052 20478 ft 427 kts 255°
2026-05-06 22:20 34.79279 133.78569 20020 ft 425 kts 255°
2026-05-06 22:20 34.78499 133.75101 19566 ft 424 kts 254°
2026-05-06 22:20 34.77722 133.71646 19096 ft 423 kts 254°
2026-05-06 22:20 34.76946 133.68205 18642 ft 422 kts 254°
2026-05-06 22:21 34.76171 133.64774 18136 ft 420 kts 254°
2026-05-06 22:21 34.75402 133.61368 17659 ft 417 kts 254°
2026-05-06 22:21 34.74635 133.57977 17176 ft 414 kts 254°
2026-05-06 22:21 34.73872 133.54611 16726 ft 411 kts 254°
2026-05-06 22:22 34.73113 133.51271 16290 ft 409 kts 255°
2026-05-06 22:22 34.72356 133.47944 15849 ft 408 kts 254°
2026-05-06 22:22 34.71609 133.44663 15407 ft 407 kts 254°
2026-05-06 22:22 34.70847 133.41313 14959 ft 406 kts 254°
2026-05-06 22:23 34.70095 133.38016 14513 ft 402 kts 254°
2026-05-06 22:23 34.69365 133.34821 14078 ft 394 kts 254°
2026-05-06 22:23 34.68508 133.31688 13446 ft 390 kts 248°
2026-05-06 22:23 34.67439 133.28693 12960 ft 383 kts 246°
2026-05-06 22:24 34.66374 133.25770 12538 ft 375 kts 246°
2026-05-06 22:24 34.65351 133.22881 12124 ft 368 kts 247°
2026-05-06 22:24 34.64363 133.20038 11709 ft 362 kts 247°
2026-05-06 22:24 34.63413 133.17285 11275 ft 346 kts 247°
2026-05-06 22:25 34.62506 133.14646 10904 ft 332 kts 247°
2026-05-06 22:25 34.61631 133.12103 10549 ft 320 kts 247°
2026-05-06 22:25 34.60784 133.09652 10228 ft 308 kts 247°
2026-05-06 22:25 34.59976 133.07312 10097 ft 292 kts 247°
2026-05-06 22:26 34.59208 133.05089 9955 ft 282 kts 247°
2026-05-06 22:26 34.58457 133.02917 9660 ft 282 kts 246°
2026-05-06 22:26 34.57695 133.00713 9347 ft 282 kts 246°
2026-05-06 22:26 34.56934 132.98515 9024 ft 283 kts 246°
2026-05-06 22:27 34.56481 132.96233 8711 ft 283 kts 268°
2026-05-06 22:27 34.56538 132.93853 8452 ft 283 kts 271°
2026-05-06 22:27 34.56635 132.91495 8338 ft 275 kts 271°
2026-05-06 22:27 34.56745 132.89206 8282 ft 268 kts 271°
2026-05-06 22:28 34.56856 132.86957 8105 ft 265 kts 271°
2026-05-06 22:28 34.56970 132.84745 7919 ft 262 kts 272°
2026-05-06 22:28 34.57091 132.82545 7639 ft 263 kts 272°
2026-05-06 22:28 34.57208 132.80342 7431 ft 260 kts 271°
2026-05-06 22:29 34.57326 132.78158 7199 ft 258 kts 271°
2026-05-06 22:29 34.57448 132.75988 6899 ft 258 kts 272°
2026-05-06 22:29 34.57573 132.73826 6597 ft 256 kts 271°
2026-05-06 22:29 34.57699 132.71673 6336 ft 256 kts 272°
2026-05-06 22:30 34.57804 132.69509 5950 ft 260 kts 271°
2026-05-06 22:30 34.57929 132.67335 5761 ft 257 kts 272°
2026-05-06 22:30 34.58061 132.65181 5461 ft 254 kts 271°
2026-05-06 22:30 34.57795 132.63130 5197 ft 245 kts 239°
2026-05-06 22:31 34.56588 132.61756 5044 ft 239 kts 204°
2026-05-06 22:31 34.54991 132.61202 4887 ft 240 kts 188°
2026-05-06 22:31 34.53298 132.61304 4617 ft 249 kts 169°
2026-05-06 22:31 34.51655 132.61791 4440 ft 239 kts 168°
2026-05-06 22:32 34.50103 132.62262 4282 ft 221 kts 168°
2026-05-06 22:32 34.48666 132.62692 4153 ft 204 kts 168°
2026-05-06 22:32 34.47334 132.63086 4123 ft 192 kts 169°
2026-05-06 22:32 34.46036 132.63467 4100 ft 193 kts 169°
2026-05-06 22:33 34.44763 132.64039 4084 ft 201 kts 146°
2026-05-06 22:33 34.43992 132.65414 4091 ft 201 kts 103°
2026-05-06 22:33 34.43836 132.67070 4128 ft 195 kts 100°
2026-05-06 22:33 34.43696 132.68671 4087 ft 188 kts 96°
2026-05-06 22:34 34.43639 132.70256 4125 ft 190 kts 94°
2026-05-06 22:34 34.43623 132.71883 4030 ft 195 kts 93°
2026-05-06 22:34 34.43619 132.73507 3757 ft 188 kts 93°
2026-05-06 22:34 34.43618 132.75058 3503 ft 180 kts 93°
2026-05-06 22:35 34.43615 132.76541 3284 ft 173 kts 93°
2026-05-06 22:35 34.43614 132.77951 3062 ft 163 kts 93°
2026-05-06 22:35 34.43578 132.79324 2888 ft 170 kts 94°
2026-05-06 22:35 34.43623 132.80791 2608 ft 171 kts 90°
2026-05-06 22:36 34.43619 132.82204 2334 ft 162 kts 92°
2026-05-06 22:36 34.43614 132.83510 2151 ft 156 kts 91°
2026-05-06 22:36 34.43618 132.84816 1967 ft 155 kts 91°
2026-05-06 22:36 34.43595 132.86115 1764 ft 154 kts 90°
2026-05-06 22:37 34.43602 132.87425 1577 ft 156 kts 91°
2026-05-06 22:37 34.43602 132.88751 1374 ft 159 kts 91°
2026-05-06 22:37 34.43604 132.90066 1189 ft 153 kts 89°
2026-05-06 22:37 34.43607 132.91311 1084 ft 138 kts 90°
2026-05-06 22:38 34.43603 132.92351 1077 ft 107 kts 90°
2026-05-06 22:38 34.43603 132.93492 1255 ft 155 kts 90°
2026-05-06 22:38 34.43572 132.94875 1719 ft 174 kts 94°
2026-05-06 22:38 34.43490 132.96383 2319 ft 182 kts 94°
2026-05-06 22:39 34.43463 132.97899 2745 ft 186 kts 78°
2026-05-06 22:39 34.44169 132.99099 3246 ft 176 kts 35°
2026-05-06 22:39 34.45121 133.00164 3234 ft 191 kts 67°
2026-05-06 22:39 34.45797 133.01511 3372 ft 205 kts 43°
2026-05-06 22:40 34.47168 133.02334 3327 ft 237 kts
2026-05-06 22:40 34.48804 133.02195 3344 ft 237 kts 342°
2026-05-06 22:40 34.50267 133.01311 3556 ft 235 kts 316°
2026-05-06 22:40 34.51292 132.99823 3705 ft 234 kts 295°
2026-05-06 22:41 34.52077 132.96192 4043 ft 223 kts 279°
2026-05-06 22:41 34.52418 132.94347 4157 ft 224 kts 278°
2026-05-06 22:41 34.52687 132.92482 4202 ft 227 kts 273°
2026-05-06 22:42 34.52940 132.90554 4154 ft 236 kts 277°
2026-05-06 22:42 34.53191 132.88613 4189 ft 232 kts 276°
2026-05-06 22:42 34.53433 132.86687 4154 ft 230 kts 273°
2026-05-06 22:42 34.53635 132.84805 4200 ft 221 kts 275°
2026-05-06 22:43 34.53852 132.82963 4303 ft 223 kts 275°
2026-05-06 22:43 34.54145 132.81073 4183 ft 226 kts 277°
2026-05-06 22:43 34.54468 132.79208 4153 ft 226 kts 275°
2026-05-06 22:43 34.54722 132.77348 4265 ft 226 kts 278°
2026-05-06 22:44 34.54871 132.75462 4118 ft 231 kts 256°
2026-05-06 22:44 34.54076 132.73803 4163 ft 234 kts 219°
2026-05-06 22:44 34.52754 132.72685 4203 ft 231 kts 213°
2026-05-06 22:44 34.51437 132.71553 4057 ft 228 kts 215°
2026-05-06 22:45 34.50160 132.70387 4104 ft 233 kts 216°
2026-05-06 22:45 34.48842 132.69416 4081 ft 209 kts 198°
2026-05-06 22:45 34.47463 132.69148 4142 ft 198 kts 178°
2026-05-06 22:45 34.46141 132.69439 4154 ft 188 kts 163°
2026-05-06 22:46 34.44973 132.70268 4143 ft 200 kts 141°
2026-05-06 22:46 34.44152 132.71682 3895 ft 211 kts 110°
2026-05-06 22:46 34.43859 132.73372 3728 ft 205 kts 97°
2026-05-06 22:46 34.43871 132.75056 3732 ft 187 kts 98°
2026-05-06 22:47 34.43655 132.76643 3265 ft 196 kts 101°
2026-05-06 22:47 34.43623 132.78253 2965 ft 182 kts 94°
2026-05-06 22:47 34.43582 132.79719 2812 ft 176 kts 92°
2026-05-06 22:47 34.43600 132.81213 2509 ft 172 kts 91°
2026-05-06 22:48 34.43607 132.82606 2267 ft 158 kts 91°
2026-05-06 22:48 34.43608 132.83931 2070 ft 158 kts 91°
2026-05-06 22:48 34.43603 132.85250 1863 ft 155 kts 91°
2026-05-06 22:48 34.43603 132.86542 1698 ft 153 kts 90°
2026-05-06 22:49 34.43587 132.87827 1534 ft 154 kts 90°
2026-05-06 22:49 34.43606 132.89093 1337 ft 152 kts 91°
2026-05-06 22:49 34.43605 132.90373 1121 ft 151 kts 90°
2026-05-06 22:49 34.43606 132.91574 1080 ft 132 kts 89°
2026-05-06 22:50 34.43604 132.92532 1077 ft 92 kts 90°
2026-05-06 22:50 34.43616 132.92864 1077 ft 13 kts 48°
2026-05-06 22:50 34.43679 132.92895 1077 ft 9 kts
2026-05-06 22:50 34.43737 132.92886 1076 ft 8 kts 334°
2026-05-06 22:51 34.43771 132.92833 1076 ft 8 kts 275°
2026-05-06 22:51 34.43768 132.92766 1077 ft 8 kts 268°
2026-05-06 22:51 34.43766 132.92701 1077 ft 8 kts 268°
2026-05-06 22:51 34.43765 132.92610 1077 ft 16 kts 273°
2026-05-06 22:52 34.43765 132.92390 1077 ft 31 kts 269°
2026-05-06 22:52 34.43764 132.92133 1077 ft 32 kts 271°
2026-05-06 22:52 34.43769 132.92011 1077 ft 3 kts 286°
2026-05-06 22:52 34.43792 132.92000 1077 ft 6 kts 358°
2026-05-06 22:53 34.43850 132.92003 1077 ft 11 kts
2026-05-06 22:53 34.43884 132.92004 1077 ft 4 kts
2026-05-06 22:53 34.43907 132.92005 1077 ft 0 kts